Weather reports worldwide

Advertisment
Bale-Mulhouse, France (7299): temperature & dewpoint: 10.12.2018 01:00:00 - 16.12.2018 01:00:00 (CET)Bale-Mulhouse, France (7299): temperature 5cm: 10.12.2018 01:00:00 - 16.12.2018 01:00:00 (CET)Bale-Mulhouse, France (7299): temperature -20cm & temperature -100cm: 10.12.2018 01:00:00 - 16.12.2018 01:00:00 (CET)Bale-Mulhouse, France (7299): wind speed & gusts: 10.12.2018 01:00:00 - 16.12.2018 01:00:00 (CET)Bale-Mulhouse, France (7299): wind direction: 10.12.2018 01:00:00 - 16.12.2018 01:00:00 (CET)Bale-Mulhouse, France (7299): reduced air pressure: 10.12.2018 01:00:00 - 16.12.2018 01:00:00 (CET)Bale-Mulhouse, France (7299): visibility: 10.12.2018 01:00:00 - 16.12.2018 01:00:00 (CET)Bale-Mulhouse, France (7299): precipitation: 10.12.2018 01:00:00 - 16.12.2018 01:00:00 (CET)
Date & Time tt [°C] td [°C] tt 5cm [°C] tt -20cm [°C] tt -100cm [°C] ff [km/h] ff [kn] fx [km/h] fx [kn] dd ppp [hPa] vv [km] rr [mm]
16.12.2018 01:00:00 -1,2 -2,9 -1,1 4,0 8,1 16 9 24 13 ESE 1017,8 2,8 0,0
16.12.2018 00:00:00 -0,1 -5,1 -0,3 4,0 8,1 13 7 26 14 ESE 1018,9 10 0,0
15.12.2018 23:00:00 -0,2 -5,0 -0,4 4,1 8,1 18 10 39 21 ESE 1019,5 10 0,0
15.12.2018 22:00:00 -0,2 -5,2 -0,7 4,1 8,1 21 11 38 20 ESE 1020,1 10 0,0
15.12.2018 21:00:00 -0,3 -5,3 -0,6 4,2 8,1 19 11 37 20 ESE 1020,9 12 0,0
15.12.2018 20:00:00 -0,3 -5,3 -1,1 4,3 8,1 20 11 40 22 E 1021,3 12 0,0
15.12.2018 19:00:00 -0,3 -5,3 -1,4 4,4 8,2 19 10 32 18 E 1022,1 12 0,0
15.12.2018 18:00:00 -0,4 -5,2 -1,6 4,4 8,2 16 9 28 15 E 1022,9 12 0,0
15.12.2018 17:00:00 0,1 -5,1 -0,4 4,4 8,2 15 8 31 17 E 1023,4 12 0,0
15.12.2018 16:00:00 0,1 -5,3 -0,5 4,4 8,2 15 8 31 17 E 1023,6 12 0,0
15.12.2018 15:00:00 0,7 -5,1 1,1 4,4 8,2 18 10 31 17 E 1023,8 12 0,0
15.12.2018 14:00:00 0,8 -5,0 1,5 4,3 8,2 13 7 28 15 E 1024,1 12 0,0
15.12.2018 13:00:00 0,9 -4,5 1,6 4,3 8,2 16 9 28 15 ESE 1024,1 15 0,0
15.12.2018 12:00:00 0,9 -4,7 1,3 4,3 8,3 19 11 31 17 SE 1024,6 15 0,0
15.12.2018 11:00:00 0,7 -4,9 0,7 4,3 8,3 10 5 22 12 E 1025,6 15 0,0
15.12.2018 10:00:00 0,2 -4,8 0,0 4,3 8,3 9 5 23 12 ENE 1025,6 15 0,0
15.12.2018 09:00:00 -0,1 -4,9 -0,4 4,3 8,3 8 4 25 14 NE 1025,3 15 0,0
15.12.2018 08:00:00 -0,1 -5,1 -0,4 4,4 8,3 9 5 21 11 ENE 1025,1 15 0,0
15.12.2018 07:00:00 0,0 -5,0 -0,4 4,4 8,3 6 3 17 9 ESE 1025,2 13 0,0
15.12.2018 06:00:00 -0,1 -3,3 -0,5 4,4 8,3 4 2 14 8 ENE 1025,1 10 0,0
15.12.2018 05:00:00 -0,4 -2,9 -0,8 4,4 8,4 4 2 7 4 NE 1025,1 9 0,0
15.12.2018 04:00:00 -0,5 -2,7 -0,7 4,4 8,4 5 3 10 6 NW 1025,5 10 0,0
15.12.2018 03:00:00 -0,3 -2,2 -0,6 4,4 8,4 8 4 12 6 NW 1025,4 9 0,0
15.12.2018 02:00:00 -0,3 -2,0 -0,6 4,4 8,4 0 0 9 5 N 1024,6 9 0,0
15.12.2018 01:00:00 -0,3 -2,0 -0,4 4,4 8,4 6 4 9 5 NNW 1024,2 8 0,0
15.12.2018 00:00:00 0,0 -2,1 -0,5 4,5 8,4 3 2 10 6 WNW 1024,0 9 0,0
14.12.2018 23:00:00 -0,2 -2,4 -0,4 4,5 8,5 0 0 10 5 N 1023,8 9 0,0
14.12.2018 22:00:00 -0,1 -2,6 -0,4 4,5 8,5 6 4 9 5 N 1024,3 10 0,0
14.12.2018 21:00:00 0,0 -2,5 -0,2 4,5 8,5 6 4 11 6 NW 1024,1 10 0,0
14.12.2018 20:00:00 0,0 -2,4 -0,2 4,5 8,5 6 4 13 7 NNW 1023,6 10 0,0
14.12.2018 19:00:00 0,1 -2,3 -0,1 4,5 8,5 8 4 12 6 NNW 1023,1 10 0,0
14.12.2018 18:00:00 0,3 -2,7 0,1 4,5 8,5 9 5 15 8 N 1022,5 10 0,0
14.12.2018 17:00:00 0,5 -2,6 0,3 4,5 8,5 9 5 14 8 N 1021,5 10 0,0
14.12.2018 16:00:00 0,6 -2,6 0,7 4,5 8,5 9 5 21 11 N 1020,9 12 0,0
14.12.2018 15:00:00 1,0 -2,2 1,5 4,4 8,6 12 6 18 10 N 1020,0 12 0,0
14.12.2018 14:00:00 1,2 -3,1 1,9 4,3 8,6 7 4 13 7 NNW 1019,6 12 0,0
14.12.2018 13:00:00 0,4 -2,3 1,6 4,3 8,6 7 4 10 5 NW 1019,6 10 0,0
14.12.2018 12:00:00 -0,2 -2,6 -0,1 4,3 8,6 3 1 9 5 N 1020,0 9 0,0
14.12.2018 11:00:00 -0,9 -2,6 -1,2 4,3 8,6 8 4 16 9 NNW 1020,2 8 0,0
14.12.2018 10:00:00 -1,6 -2,7 -1,9 4,3 8,6 9 5 14 7 NW 1019,8 7 0,0
14.12.2018 09:00:00 -2,1 -3,1 -2,3 4,4 8,7 10 5 14 7 NNW 1018,9 8 0,0
14.12.2018 08:00:00 -2,1 -3,2 -2,2 4,4 8,7 11 6 14 8 NNW 1018,2 8 0,0
14.12.2018 07:00:00 -2,0 -3,1 -2,1 4,4 8,7 9 5 14 7 NNW 1017,7 7 0,0
14.12.2018 06:00:00 -1,9 -3,0 -2,2 4,5 8,7 8 4 11 6 NW 1017,3 8 0,0
14.12.2018 05:00:00 -2,0 -3,1 -2,3 4,5 8,7 10 5 15 8 NNW 1017,2 8 0,0
14.12.2018 04:00:00 -1,7 -3,1 -2,0 4,6 8,7 11 6 16 9 NNW 1017,1 9 0,0
14.12.2018 03:00:00 -1,5 -2,8 -3,9 4,7 8,7 8 5 14 8 NW 1016,9 7 0,0
14.12.2018 02:00:00 -1,5 -2,5 -3,5 4,7 8,8 3 2 9 5 WNW 1016,4 7 0,0
14.12.2018 01:00:00 -1,1 -2,4 -2,0 4,8 8,8 9 5 12 6 NW 1016,3 7 0,0
14.12.2018 00:00:00 -1,1 -2,4 -1,7 4,8 8,8 5 3 15 8 NNW 1016,0 8 0,0
13.12.2018 23:00:00 -0,8 -1,9 -1,1 4,8 8,8 10 5 16 9 NNW 1015,7 9 0,0
13.12.2018 22:00:00 -0,8 -2,1 -1,8 4,9 8,8 11 6 16 9 NW 1015,5 10 0,0
13.12.2018 21:00:00 -1,2 -2,5 -2,1 4,9 8,8 9 5 14 8 NNW 1015,1 10 0,0
13.12.2018 20:00:00 -0,7 -2,4 -1,8 5,0 8,8 9 5 12 6 NW 1014,8 10 0,0
13.12.2018 19:00:00 -0,3 -2,0 -2,2 5,0 8,8 10 5 14 7 NNW 1014,6 10 0,0
13.12.2018 18:00:00 -0,5 -1,8 -2,1 5,0 8,9 5 3 13 7 NW 1014,6 11 0,0
13.12.2018 17:00:00 0,7 -1,1 0,0 5,1 8,9 10 5 20 11 NNW 1014,5 12 0,0
13.12.2018 16:00:00 1,6 -0,8 1,7 5,0 8,9 14 8 19 11 N 1014,0 12 0,0
13.12.2018 15:00:00 1,6 -0,7 1,5 5,0 8,9 11 6 21 12 NNW 1013,9 12 0,0
13.12.2018 14:00:00 1,4 -0,8 1,8 5,0 8,9 15 8 22 12 NNW 1014,5 12 0,0
13.12.2018 13:00:00 1,2 -1,0 1,4 5,0 8,9 14 8 21 11 NNW 1014,5 11 0,0
13.12.2018 12:00:00 0,7 -0,9 1,2 4,9 8,9 11 6 21 12 NNW 1014,8 9 0,0
13.12.2018 11:00:00 0,4 -0,9 0,6 4,9 9,0 11 6 16 9 NNW 1015,5 8 0,0
13.12.2018 10:00:00 -0,3 -1,0 -0,5 5,0 9,0 7 4 14 7 NW 1015,8 7 0,0
13.12.2018 09:00:00 -0,7 -1,3 -0,8 5,0 9,0 7 4 13 7 NNW 1016,4 5 0,0
13.12.2018 08:00:00 -0,8 -1,4 -0,8 5,0 9,0 8 4 12 6 NNW 1016,4 3,3 0,0
13.12.2018 07:00:00 -0,8 -1,1 -1,0 5,0 9,0 6 3 15 8 WNW 1016,5 2,8 0,0
13.12.2018 06:00:00 -1,0 -1,4 -1,4 5,1 9,1 11 6 16 8 NNW 1016,6 3,3 0,0
13.12.2018 05:00:00 -0,7 -1,1 -0,8 5,1 9,1 6 3 13 7 NNW 1017,2 3,8 0,0
13.12.2018 04:00:00 -0,8 -1,2 -1,0 5,1 9,1 8 4 13 7 NNW 1018,0 5 0,0
13.12.2018 03:00:00 -0,8 -1,2 -0,8 5,1 9,1 6 3 12 7 NNW 1018,5 3,9 0,0
13.12.2018 02:00:00 -0,7 -1,1 -0,6 5,2 9,1 8 5 13 7 NNW 1019,0 3,3 0,0
13.12.2018 01:00:00 -0,7 -1,1 -0,8 5,1 9,1 8 4 12 7 NNW 1019,7 3,6 0,0
13.12.2018 00:00:00 -0,8 -1,2 -0,8 5,2 9,2 8 5 14 8 N 1020,3 2,3 0,0
12.12.2018 23:00:00 -0,7 -1,3 -0,7 5,2 9,2 6 3 13 7 NNW 1020,6 2,8 0,0
12.12.2018 22:00:00 -0,7 -1,4 -0,6 5,2 9,2 9 5 16 9 N 1021,2 2,8 0,0
12.12.2018 21:00:00 0,1 -0,9 -0,1 5,2 9,2 7 4 14 7 N 1021,4 5 0,0
12.12.2018 20:00:00 0,5 -0,4 0,5 5,2 9,2 7 4 17 9 NNW 1021,6 3,3 0,0
12.12.2018 19:00:00 0,4 -0,2 0,4 5,2 9,2 10 6 22 12 NNW 1021,7 3,3 0,0
12.12.2018 18:00:00 0,3 -0,3 0,0 5,2 9,3 15 8 21 12 N 1021,8 2,8 0,0
12.12.2018 17:00:00 -0,2 -0,8 -0,5 5,2 9,3 9 5 20 11 WNW 1021,9 4,5 0,0
12.12.2018 16:00:00 -0,3 -1,1 -0,4 5,2 9,3 12 6 21 11 NW 1022,1 5 0,0
12.12.2018 15:00:00 0,6 -1,0 1,7 5,1 9,3 14 8 22 12 NNW 1022,2 15 0,0
12.12.2018 14:00:00 1,9 -0,7 2,7 5,1 9,3 10 6 17 9 NNW 1022,6 15 0,0
12.12.2018 13:00:00 1,4 -1,0 2,0 5,1 9,3 9 5 13 7 NNW 1023,3 15 0,0
12.12.2018 12:00:00 -0,1 -1,5 1,3 5,1 9,3 9 5 13 7 NNW 1024,2 10 0,0
12.12.2018 11:00:00 -0,3 -1,7 -0,2 5,2 9,3 2 1 5 3 N 1024,8 8 0,0
12.12.2018 10:00:00 -2,3 -2,9 -4,1 5,4 9,4 3 1 10 6 E 1025,2 0,1 0,0
12.12.2018 09:00:00 -3,7 -4,1 -6,0 5,4 9,4 0 0 9 5 N 1025,3 0,1 0,0
12.12.2018 08:00:00 -4,9 -5,4 -6,1 5,6 9,4 3 1 8 4 S 1025,5 - 0,0
12.12.2018 07:00:00 -5,0 -5,5 -6,1 5,6 9,4 6 4 8 4 NNW 1025,5 0,1 0,0
12.12.2018 06:00:00 -5,5 -6,3 -7,0 5,8 9,4 4 2 6 3 N 1025,5 0,1 0,0
12.12.2018 05:00:00 -4,9 -5,3 -7,1 5,9 9,4 2 1 7 4 NW 1025,7 0,2 0,0
12.12.2018 04:00:00 -3,9 -4,4 -7,5 6,0 9,4 0 0 4 2 N 1025,7 0,8 0,0
12.12.2018 03:00:00 -3,6 -4,1 -6,6 6,2 9,5 2 1 5 3 SSW 1026,0 2,9 0,0
12.12.2018 02:00:00 -3,2 -3,7 -6,5 6,3 9,5 3 2 7 4 N 1025,9 4,9 0,0
12.12.2018 01:00:00 -2,6 -3,0 -6,0 6,5 9,5 3 2 5 3 W 1025,8 0,8 0,0
12.12.2018 00:00:00 -2,4 -2,8 -5,3 6,6 9,5 2 1 4 2 NW 1025,8 3,8 0,0
11.12.2018 23:00:00 -1,6 -2,2 -4,7 6,7 9,5 2 1 6 4 ESE 1025,5 7 0,0
11.12.2018 22:00:00 -1,4 -2,1 -4,5 6,9 9,5 3 2 7 4 WSW 1025,5 9 0,0
11.12.2018 21:00:00 -0,6 -1,4 -3,5 7,0 9,5 4 2 6 3 SSW 1025,6 12 0,0
11.12.2018 20:00:00 -0,1 -1,2 -2,8 7,1 9,5 3 2 7 4 S 1025,6 15 0,0
11.12.2018 19:00:00 0,9 -1,2 -2,2 7,1 9,5 4 2 8 4 ENE 1025,4 20 0,0
11.12.2018 18:00:00 2,8 0,4 0,2 7,1 9,5 6 3 10 6 WSW 1025,3 30 0,0
11.12.2018 17:00:00 3,5 1,4 2,0 7,1 9,5 3 2 4 2 W 1025,2 30 0,0
11.12.2018 16:00:00 4,6 -0,8 3,8 7,1 9,6 3 2 6 3 N 1024,9 40 0,0
11.12.2018 15:00:00 5,0 -0,6 5,3 7,0 9,5 2 1 8 5 NW 1025,0 30 0,0
11.12.2018 14:00:00 5,4 0,0 6,9 6,9 9,5 5 3 10 5 NNW 1025,3 20 0,0
11.12.2018 13:00:00 5,9 2,4 7,4 6,8 9,5 6 3 16 9 NE 1025,5 20 0,0
11.12.2018 12:00:00 6,4 2,3 6,0 6,8 9,5 3 1 13 7 E 1025,9 15 0,0
11.12.2018 11:00:00 3,9 2,4 3,3 6,9 9,6 9 5 16 9 E 1027,0 15 0,0
11.12.2018 10:00:00 3,2 2,0 1,8 7,0 9,6 5 3 11 6 E 1026,8 12 0,0
11.12.2018 09:00:00 1,9 1,2 0,1 7,0 9,6 3 2 7 4 ENE 1026,9 12 0,0
11.12.2018 08:00:00 1,9 1,5 0,0 7,1 9,6 5 3 10 5 E 1027,0 12 0,0
11.12.2018 07:00:00 0,8 0,4 -0,5 7,2 9,6 0 0 5 3 N 1027,0 20 0,0
11.12.2018 06:00:00 1,9 0,6 -0,1 7,3 9,6 3 1 13 7 NNE 1026,8 20 0,0
11.12.2018 05:00:00 2,0 1,1 -0,5 7,4 9,6 6 3 12 7 NE 1026,6 33 0,0
11.12.2018 04:00:00 2,3 1,0 0,2 7,5 9,6 3 2 20 11 W 1026,5 43 0,0
11.12.2018 03:00:00 3,3 1,5 1,3 7,5 9,6 16 8 21 11 WSW 1026,3 40 0,0
11.12.2018 02:00:00 3,8 2,3 2,1 7,6 9,6 11 6 21 11 W 1026,3 35 0,0
11.12.2018 01:00:00 4,8 3,3 4,4 7,6 9,6 9 5 24 13 WNW 1026,1 41 0,0
11.12.2018 00:00:00 5,4 3,1 4,4 7,7 9,6 16 9 32 17 W 1026,2 60 0,0
10.12.2018 23:00:00 5,7 3,0 5,0 7,7 9,6 22 12 31 17 W 1025,9 60 0,0
10.12.2018 22:00:00 5,7 2,9 4,7 7,7 9,6 20 11 32 17 WSW 1025,8 60 0,0
10.12.2018 21:00:00 5,7 2,9 4,0 7,8 9,6 21 11 31 17 WSW 1026,4 60 0,0
10.12.2018 20:00:00 4,7 2,6 3,8 7,9 9,6 22 12 29 15 WSW 1026,4 60 0,0
10.12.2018 19:00:00 5,2 2,7 4,1 7,9 9,7 20 11 32 17 WSW 1026,2 60 0,0
10.12.2018 18:00:00 5,4 3,1 4,4 7,9 9,7 17 9 31 17 W 1026,1 60 0,0
10.12.2018 17:00:00 5,5 3,0 4,4 7,9 9,7 17 9 31 17 W 1025,6 60 0,0
10.12.2018 16:00:00 6,9 3,5 6,4 7,9 9,6 19 11 38 20 W 1025,3 60 0,0
10.12.2018 15:00:00 7,8 4,4 6,2 7,8 9,6 12 7 35 19 WNW 1025,0 20 0,2
10.12.2018 14:00:00 6,9 4,6 5,4 7,8 9,7 7 4 40 22 W 1025,4 12 0,6
10.12.2018 13:00:00 7,8 3,6 7,4 7,7 9,7 24 13 39 21 W 1025,8 30 0,0
10.12.2018 12:00:00 8,2 4,2 7,9 7,7 9,6 24 13 40 21 W 1026,1 60 0,2
10.12.2018 11:00:00 7,5 3,7 6,3 7,7 9,7 20 11 31 17 W 1026,3 60 0,0
10.12.2018 10:00:00 6,2 3,5 5,3 7,8 9,7 16 8 30 16 WSW 1026,1 60 0,0
10.12.2018 09:00:00 5,7 2,9 5,0 7,8 9,7 13 7 31 17 WSW 1025,5 60 0,0
10.12.2018 08:00:00 5,9 2,7 4,8 7,9 9,7 21 11 40 22 WSW 1025,2 60 0,0
10.12.2018 07:00:00 5,6 3,1 4,6 7,9 9,7 23 13 42 23 WSW 1024,4 30 0,0
10.12.2018 06:00:00 5,6 3,3 4,5 8,0 9,7 25 13 42 23 W 1023,6 30 0,0
10.12.2018 05:00:00 5,3 3,1 4,8 8,0 9,7 16 8 30 16 WSW 1023,7 30 0,0
10.12.2018 04:00:00 5,7 3,4 5,0 8,1 9,7 11 6 22 12 WSW 1023,6 30 0,0
10.12.2018 03:00:00 5,6 3,3 4,7 8,1 9,7 14 7 25 13 WSW 1023,3 60 0,0
10.12.2018 02:00:00 6,3 2,9 4,8 8,2 9,7 20 11 44 24 W 1022,4 60 0,0
10.12.2018 01:00:00 6,5 3,5 5,2 8,2 9,7 27 14 39 21 W 1021,6 60 0,0

tt = temperature
td = dewpoint
tt 5cm = temperature 5cm
tt -20cm = temperature -20cm
tt -100cm = temperature -100cm
ff = wind speed
fx = gusts
dd = wind direction
ppp = reduced air pressure
vv = visibility
rr = precipitation

Next stations